[[{"header":{"parameterUnit":"m.s-1","parameterCategory":1,"la1":30.2991,"la2":30.254,"lo1":-89.0895,"lo2":-89.0444,"dy":0.0017,"dx":0.0017,"nx":28,"ny":28,"refTime":"2024-08-28T21:00:00:Z","depth":0,"parameterNumber":2,"parameterNumberName":"U-component_of_WINDS"},"data":[0,0,0,0,0,0,0,0,0,0,0,0,0,0,0,0,0,0,0,0,0,0,0,0,0,0,0,0,0,0,0,0,0,0,0,0,0,0,0,0,0,0,0,0,0,0,0,0,0,0,0,0,0,0,0,0,0,0,-2.6874,-2.6875,0,-2.6976,-2.6977,-2.6978,-2.6951,-2.6949,-2.6947,-2.6945,-2.705,-2.7055,-2.7059,0,0,0,0,0,0,0,0,0,0,0,0,0,-2.666,-2.6664,-2.6874,-2.6875,-2.6877,-2.6975,-2.6977,-2.6978,-2.6951,-2.6949,-2.6946,-2.6944,-2.7049,-2.7054,-2.706,0,0,0,0,0,0,0,0,0,0,0,0,0,-2.6756,-2.6665,-2.6874,-2.6875,-2.6876,-2.6975,-2.6977,-2.6979,-2.6952,-2.6949,-2.6946,-2.6943,-2.7047,-2.7054,-2.7061,-2.7165,0,0,-2.7082,-2.7085,0,0,0,0,0,0,0,0,-2.6751,-2.6764,-2.6874,-2.6875,-2.6877,-2.6948,-2.694,-2.7041,-2.6953,-2.6923,-2.6945,-2.6941,-2.7019,-2.7028,-2.7054,-2.717,-2.7174,-2.7083,-2.7087,-2.709,-2.7092,0,0,0,0,0,0,0,-2.6744,-2.6759,-2.6914,-2.6875,-2.6877,-2.6871,-2.6882,-2.6959,-2.6987,-2.6926,-2.6924,-2.6936,-2.7019,-2.7047,-2.7056,-2.7176,-2.7083,-2.7089,-2.7093,-2.7096,-2.7385,-2.7388,0,0,0,0,0,0,-2.6736,-2.6754,-2.6911,-2.6917,-2.6805,-2.6878,-2.6889,-2.6928,-2.6986,-2.6992,-2.6939,-2.6935,-2.7036,-2.7048,-2.7059,-2.7186,-2.709,-2.7097,-2.7101,-2.7381,-2.7386,-2.7389,0,0,0,0,0,0,-2.6731,-2.675,-2.6907,-2.6835,-2.6855,-2.6885,-2.6928,-2.6931,-2.6959,-2.6996,-2.7001,-2.6962,-2.7034,-2.705,-2.7139,-2.7189,-2.71,-2.7106,-2.7377,-2.7383,-2.7387,-2.7439,0,0,0,0,0,0,-2.6725,-2.6749,-2.6788,-2.6836,-2.6859,-2.6984,-2.6931,-2.6936,-2.6971,-2.6967,-2.7019,-2.7025,-2.7033,-2.7129,-2.7146,-2.7197,-2.7112,-2.7373,-2.738,-2.7386,-2.7433,-2.7445,-2.7456,0,0,0,0,0,-2.6718,-2.6798,-2.679,-2.6809,-2.6908,-2.6987,-2.7,-2.7008,-2.6976,-2.7016,-2.7039,-2.7023,-2.7181,-2.7138,-2.7158,-2.7211,-2.737,-2.7378,-2.7385,-2.7428,-2.7443,-2.7456,0,0,0,0,0,0,-2.6754,-2.6804,-2.6796,-2.6894,-2.6937,-2.6982,-2.7033,-2.7023,-2.7076,-2.707,-2.7078,-2.709,-2.7182,-2.7206,-2.7157,-2.7316,-2.7271,-2.7283,-2.7297,-2.7311,-2.7323,-2.7314,-2.7118,0,0,0,0,0,-2.6774,-2.6833,-2.6874,-2.6957,-2.6979,-2.7003,-2.7037,-2.704,-2.7084,-2.7102,-2.7132,-2.7177,-2.7236,-2.7275,-2.7332,-2.7437,-2.7449,-2.7484,-2.7495,-2.7505,-2.7515,-2.7573,-2.7589,-2.7415,-2.7415,-2.7415,0,0,-2.6815,-2.685,-2.6887,-2.6966,-2.6999,-2.7061,-2.7018,-2.7085,-2.7131,-2.7112,-2.7199,-2.7223,-2.7273,-2.7371,-2.7416,-2.7394,-2.7566,-2.7515,-2.7522,-2.7527,-2.7582,-2.7599,-2.7614,-2.742,-2.7419,-2.7418,0,0,-2.6921,-2.6953,-2.7026,-2.7061,-2.7112,-2.7127,-2.7145,-2.7193,-2.7208,-2.7295,-2.7283,-2.7339,-2.7441,-2.7478,-2.751,-2.7633,-2.762,-2.7651,-2.771,-2.7767,-2.7781,-2.7793,-2.7837,-2.7853,-2.7661,-2.7661,-2.7662,0,-2.6965,-2.7057,-2.7065,-2.7134,-2.7169,-2.7156,-2.723,-2.7264,-2.7331,-2.7356,-2.7331,-2.7461,-2.7494,-2.76,-2.763,-2.7657,-2.7678,-2.7644,-2.7778,-2.7791,-2.7802,-2.7844,-2.7861,-2.7665,-2.7664,-2.7664,-2.7664,0,-2.711,-2.7174,-2.7227,-2.7292,-2.7334,-2.7406,-2.7425,-2.7467,-2.7467,-2.7485,-2.7575,-2.7614,-2.7679,-2.7705,-2.7706,-2.7813,-2.7798,-2.7776,-2.773,-2.7822,-2.7862,-2.7878,-2.767,-2.7669,-2.7668,-2.7667,0,0,-2.7239,-2.7309,-2.7329,-2.7359,-2.7415,-2.7465,-2.7537,-2.7601,-2.7637,-2.7685,-2.7745,-2.7834,-2.7814,-2.785,-2.7855,-2.7905,-2.8001,-2.7877,-2.7878,-2.7898,-2.8122,-2.8137,-2.8156,-2.7993,-2.7996,-2.7999,-2.8117,0,-2.735,-2.7475,-2.7485,-2.7598,-2.7658,-2.7648,-2.771,-2.7753,-2.7773,-2.7828,-2.785,-2.7913,-2.7882,-2.7904,-2.7953,-2.7978,-2.8045,-2.797,-2.805,-2.8053,-2.8036,-2.8176,-2.8193,-2.8302,-2.8133,-2.8136,-2.8137,0,-2.7494,-2.7547,-2.7666,-2.7715,-2.7741,-2.7797,-2.7857,-2.7909,-2.7958,-2.7969,-2.8011,-2.801,-2.8085,-2.8038,-2.8142,-2.809,-2.8124,-2.8142,-2.8147,-2.8153,-2.81,-2.8186,-2.8338,-2.8354,-2.8162,-2.816,-2.8158,0,-2.7577,-2.7677,-2.7761,-2.7787,-2.7847,-2.7887,-2.7914,-2.7959,-2.7998,-2.8051,-2.8076,-2.8137,-2.8171,-2.8219,-2.8235,-2.8199,-2.8339,-2.8293,-2.8351,-2.835,-2.8379,-2.8377,-2.8537,-2.8403,-2.8402,-2.8402,-2.8402,0,-2.7698,-2.7771,-2.7799,-2.7851,-2.7933,-2.7945,-2.8027,-2.8052,-2.8093,-2.815,-2.8146,-2.82,-2.8218,-2.8275,-2.8289,-2.8373,-2.8389,-2.84,-2.8403,-2.84,-2.8398,-2.8421,-2.8414,-2.8406,-2.8405,-2.8405,-2.8404,0,-2.7803,-2.7824,-2.7916,-2.7966,-2.798,-2.8038,-2.8081,-2.8132,-2.8152,-2.8225,-2.8243,-2.8275,-2.8343,-2.8364,-2.8446,-2.8455,-2.8553,-2.8549,-2.8537,-2.8537,-2.8593,-2.8587,-2.8773,-2.8798,-2.8648,-2.8649,-2.865,0,-2.7878,-2.7934,-2.7991,-2.8029,-2.8057,-2.8119,-2.8158,-2.8173,-2.8214,-2.8275,-2.8318,-2.8386,-2.844,-2.8549,-2.858,-2.8643,-2.864,-2.8701,-2.865,-2.8646,-2.8641,-2.8637,-2.8643,-2.871,-2.8712,-2.8713,-2.8714,0,-2.801,-2.8019,-2.8075,-2.8136,-2.8183,-2.8232,-2.8279,-2.8311,-2.8333,-2.838,-2.8449,-2.8491,-2.8575,-2.8642,-2.8707,-2.8736,-2.8729,-2.8731,-2.8747,-2.8744,-2.8735,-2.874,-2.8562,-2.8726,-2.8725,-2.8724,-2.8723,-2.8723,-2.8102,-2.8152,-2.82,-2.8263,-2.8301,-2.8345,-2.8395,-2.8422,-2.848,-2.8549,-2.8556,-2.8631,-2.868,-2.8766,-2.8798,-2.8858,-2.884,-2.8864,-2.887,-2.8876,-2.888,-2.8726,-2.887,-2.887,-2.8869,-2.8869,-2.8869,0,-2.8233,-2.8264,-2.8323,-2.8389,-2.8439,-2.8429,-2.8481,-2.8524,-2.859,-2.8637,-2.8691,-2.8771,-2.8837,-2.8874,-2.894,-2.898,-2.8979,-2.8997,-2.8994,-2.9001,-2.8892,-2.8871,-2.8997,-2.8997,-2.8997,-2.8997,-2.8997,-2.8997,-2.8307,-2.8391,-2.8406,-2.8509,-2.8539,-2.8612,-2.8643,-2.8685,-2.8722,-2.8812,-2.8866,-2.889,-2.8933,-2.9003,-2.9063,-2.9072,-2.9097,-2.9116,-2.9124,-2.9021,-2.9008,-2.8996,-2.8976,-2.9122,-2.9122,-2.9227,-2.9228,-2.9229]},{"header":{"parameterUnit":"m.s-1","parameterCategory":1,"la1":30.2991,"la2":30.254,"lo1":-89.0895,"lo2":-89.0444,"dy":0.0017,"dx":0.0017,"nx":28,"ny":28,"refTime":"2024-08-28T21:00:00:Z","depth":0,"parameterNumber":3,"parameterNumberName":"V-component_of_WINDS"},"data":[0,0,0,0,0,0,0,0,0,0,0,0,0,0,0,0,0,0,0,0,0,0,0,0,0,0,0,0,0,0,0,0,0,0,0,0,0,0,0,0,0,0,0,0,0,0,0,0,0,0,0,0,0,0,0,0,0,0,0.7017,0.7016,0,0.6941,0.694,0.6939,0.6877,0.6876,0.6876,0.6875,0.6794,0.6792,0.6791,0,0,0,0,0,0,0,0,0,0,0,0,0,0.7106,0.7105,0.7017,0.7016,0.7015,0.6941,0.694,0.6939,0.6877,0.6876,0.6876,0.6875,0.6794,0.6792,0.679,0,0,0,0,0,0,0,0,0,0,0,0,0,0.7052,0.7104,0.7017,0.6975,0.6971,0.6941,0.694,0.6938,0.6877,0.6876,0.6875,0.6875,0.6795,0.6792,0.679,0.6794,0,0,0.6783,0.6782,0,0,0,0,0,0,0,0,0.7056,0.7049,0.6982,0.6978,0.6973,0.6918,0.6941,0.689,0.6878,0.6913,0.6875,0.6874,0.6835,0.683,0.6817,0.6791,0.6787,0.6783,0.6781,0.678,0.678,0,0,0,0,0,0,0,0.7059,0.7052,0.6987,0.6982,0.6976,0.696,0.6951,0.6931,0.688,0.691,0.6905,0.6897,0.6833,0.682,0.6815,0.6786,0.6783,0.6781,0.6779,0.6778,0.676,0.6761,0,0,0,0,0,0,0.707,0.7056,0.6989,0.6984,0.7013,0.6959,0.6949,0.6936,0.688,0.6871,0.6898,0.6894,0.6824,0.6818,0.6812,0.6813,0.678,0.6778,0.6777,0.6759,0.676,0.6761,0,0,0,0,0,0,0.7072,0.7065,0.6992,0.7019,0.7008,0.6958,0.6944,0.6935,0.6922,0.6871,0.6862,0.6894,0.6823,0.6815,0.68,0.681,0.6777,0.6775,0.6758,0.6759,0.6761,0.6817,0,0,0,0,0,0,0.7075,0.7066,0.7067,0.7019,0.7007,0.6982,0.6945,0.6934,0.6919,0.6914,0.6865,0.6857,0.6822,0.6804,0.6797,0.6806,0.6773,0.6757,0.6759,0.676,0.6814,0.682,0.6825,0,0,0,0,0,0.7078,0.7085,0.7068,0.706,0.7008,0.6983,0.6976,0.6937,0.692,0.6921,0.6888,0.6858,0.681,0.6803,0.6795,0.6803,0.6756,0.6758,0.676,0.6811,0.6819,0.6825,0,0,0,0,0,0,0.7133,0.7078,0.7058,0.7049,0.7022,0.6972,0.6972,0.6946,0.6921,0.6917,0.6868,0.6858,0.6848,0.6824,0.6816,0.6805,0.6779,0.678,0.6821,0.6827,0.6833,0.6838,0.6771,0,0,0,0,0,0.7145,0.713,0.7082,0.7079,0.7066,0.7022,0.7009,0.6982,0.6951,0.6938,0.6904,0.6874,0.6852,0.6838,0.6815,0.6811,0.6799,0.6813,0.6818,0.6823,0.6824,0.682,0.6826,0.6768,0.6768,0.6768,0,0,0.7168,0.7136,0.7129,0.7089,0.7064,0.7049,0.7012,0.6997,0.6985,0.6935,0.6919,0.6894,0.6857,0.6847,0.6841,0.6826,0.6838,0.6826,0.683,0.6828,0.6823,0.6829,0.6833,0.677,0.6769,0.6769,0,0,0.7201,0.7176,0.7171,0.7148,0.7111,0.7082,0.7081,0.7037,0.7018,0.7002,0.6964,0.6949,0.6912,0.6888,0.6871,0.6899,0.687,0.6892,0.6922,0.6919,0.6923,0.6927,0.6937,0.6941,0.6894,0.6894,0.6894,0,0.7234,0.7211,0.7172,0.716,0.7144,0.71,0.7094,0.7073,0.7031,0.702,0.7005,0.696,0.6931,0.6916,0.6923,0.6911,0.6908,0.6897,0.6926,0.6929,0.6932,0.6941,0.6945,0.6897,0.6896,0.6896,0.6896,0,0.7252,0.7237,0.7237,0.72,0.7184,0.7175,0.7134,0.7123,0.7098,0.707,0.7054,0.702,0.6989,0.6984,0.6958,0.6965,0.6957,0.6935,0.6908,0.6941,0.6949,0.6952,0.6901,0.69,0.6899,0.6898,0,0,0.7316,0.7259,0.726,0.7243,0.72,0.7187,0.7177,0.7149,0.714,0.7113,0.7103,0.7075,0.7054,0.7035,0.7007,0.7004,0.7029,0.6982,0.698,0.6991,0.7034,0.705,0.7055,0.701,0.7011,0.7011,0.7037,0,0.7343,0.7323,0.7289,0.7279,0.7265,0.7224,0.7216,0.7189,0.7163,0.7147,0.7118,0.7099,0.7073,0.7062,0.7058,0.7027,0.7036,0.7024,0.6999,0.6999,0.7009,0.7059,0.7075,0.7101,0.7039,0.704,0.704,0,0.737,0.7347,0.7338,0.7298,0.7291,0.7283,0.7256,0.7241,0.721,0.7192,0.7172,0.7142,0.7128,0.7106,0.7087,0.7079,0.7067,0.7051,0.7051,0.7046,0.7021,0.7054,0.7108,0.7112,0.7044,0.7044,0.7044,0,0.7417,0.7384,0.7374,0.7361,0.7315,0.7311,0.7291,0.7259,0.7245,0.7221,0.7212,0.7186,0.7172,0.7152,0.7116,0.7103,0.7101,0.7075,0.7085,0.7086,0.7085,0.7086,0.7138,0.708,0.708,0.708,0.708,0,0.745,0.7445,0.7395,0.7389,0.7383,0.7344,0.7339,0.7315,0.7288,0.7276,0.7239,0.7229,0.7182,0.7166,0.7138,0.7127,0.7121,0.7105,0.7098,0.7108,0.711,0.7098,0.7095,0.7081,0.708,0.708,0.708,0,0.75,0.7467,0.7453,0.7412,0.7402,0.7399,0.7363,0.7355,0.7329,0.7314,0.7309,0.7267,0.7247,0.7209,0.7178,0.7159,0.7154,0.7141,0.7164,0.7159,0.7172,0.7171,0.7217,0.7221,0.7162,0.7163,0.7163,0,0.7523,0.7519,0.7478,0.7468,0.745,0.7435,0.7421,0.7383,0.737,0.7336,0.7332,0.731,0.7289,0.7258,0.7225,0.7201,0.7187,0.7205,0.7183,0.7194,0.7186,0.7187,0.7186,0.7209,0.721,0.7211,0.7211,0,0.7566,0.755,0.7532,0.7509,0.7495,0.7474,0.7452,0.7446,0.7402,0.739,0.737,0.7354,0.7323,0.7301,0.7273,0.7252,0.7224,0.7219,0.722,0.723,0.7243,0.7236,0.7177,0.7217,0.7217,0.7216,0.7216,0.7216,0.7602,0.7597,0.7568,0.755,0.753,0.751,0.7502,0.7475,0.7458,0.7431,0.741,0.7391,0.7361,0.7321,0.7302,0.7287,0.7274,0.7275,0.7275,0.7276,0.728,0.7248,0.7281,0.7281,0.7281,0.7281,0.7281,0,0.7643,0.7623,0.7607,0.7578,0.7564,0.7542,0.7516,0.7506,0.749,0.7466,0.7447,0.7425,0.7404,0.737,0.7346,0.734,0.7327,0.7335,0.7334,0.733,0.7293,0.7295,0.7346,0.7346,0.7346,0.7346,0.7346,0.7346,0.7663,0.7653,0.7634,0.7615,0.7594,0.7577,0.7565,0.7546,0.7527,0.7504,0.7487,0.7465,0.7437,0.7411,0.7391,0.7381,0.7374,0.7386,0.7372,0.7338,0.7332,0.7326,0.7327,0.7385,0.7385,0.741,0.741,0.741]}]]